| time (UTC) | temp F | wind direction | speed knots | gust knots | rain 1hr in | rain 24hr in | rain mn in | humidity % | barometer mb |
| 20260503212710 | 44 | 281 | 6.1 | 7.0 | 0.00 | 0.00 | 0.00 | 100 | 1007.7 |
| 20260503210710 | 44 | 271 | 7.0 | 7.8 | 0.00 | 0.00 | 0.00 | 100 | 1007.7 |
| 20260503204710 | 44 | 258 | 7.0 | 7.8 | 0.00 | 0.00 | 0.00 | 100 | 1007.7 |
| 20260503202710 | 44 | 269 | 6.1 | 7.0 | 0.00 | 0.00 | 0.00 | 100 | 1007.8 |
| 20260503200710 | 45 | 264 | 5.2 | 6.1 | 0.00 | 0.00 | 0.00 | 100 | 1007.7 |
| 20260503194709 | 46 | 283 | 6.1 | 7.0 | 0.00 | 0.00 | 0.00 | 100 | 1007.8 |
| 20260503192709 | 46 | 276 | 5.2 | 5.2 | 0.00 | 0.00 | 0.00 | 100 | 1007.8 |
| 20260503190709 | 47 | 273 | 6.1 | 7.8 | 0.00 | 0.00 | 0.00 | 100 | 1007.8 |
| 20260503184710 | 47 | 268 | 7.0 | 7.8 | 0.00 | 0.00 | 0.00 | 100 | 1007.8 |
| 20260503182709 | 47 | 284 | 5.2 | 7.0 | 0.00 | 0.00 | 0.00 | 100 | 1007.7 |
| 20260503180709 | 46 | 279 | 7.0 | 7.8 | 0.00 | 0.00 | 0.00 | 100 | 1007.7 |
| 20260503174710 | 46 | 261 | 8.7 | 9.6 | 0.00 | 0.00 | 0.00 | 100 | 1007.7 |
| 20260503172716 | 46 | 256 | 9.6 | 10.4 | 0.00 | 0.00 | 0.00 | 100 | 1007.7 |
| 20260503170709 | 46 | 253 | 7.8 | 8.7 | 0.00 | 0.00 | 0.00 | 100 | 1007.6 |
| 20260503150709 | 47 | 252 | 12.2 | 16.5 | 0.00 | 0.00 | 0.00 | 100 | 1008.1 |
| 20260503130708 | 49 | 254 | 12.2 | 16.5 | 0.00 | 0.00 | 0.00 | 97 | 1008.3 |
| 20260503110708 | 51 | 246 | 13.9 | 16.5 | 0.00 | 0.00 | 0.00 | 84 | 1008.3 |
| 20260503080708 | 47 | 250 | 6.1 | 7.0 | 0.00 | 0.00 | 0.00 | 100 | 1008.2 |
| 20260503072707 | 49 | 295 | 3.5 | 5.2 | 0.00 | 0.00 | 0.00 | 94 | 1007.7 |
| 20260503070707 | 48 | 335 | 3.5 | 7.0 | 0.00 | 0.00 | 0.00 | 100 | 1007.4 |
| 20260503054707 | 46 | 265 | 5.2 | 7.8 | 0.00 | 0.00 | 0.00 | 100 | 1006.6 |
| 20260503052707 | 46 | 296 | 3.5 | 7.8 | 0.00 | 0.00 | 0.00 | 100 | 1006.6 |
| 20260503050707 | 46 | 304 | 5.2 | 7.8 | 0.00 | 0.00 | 0.00 | 100 | 1006.3 |
| 20260503044707 | 44 | 317 | 6.1 | 8.7 | 0.00 | 0.00 | 0.00 | 100 | 1006.2 |
| 20260503042707 | 43 | 268 | 6.1 | 7.8 | 0.00 | 0.00 | 0.00 | 100 | 1005.9 |
| 20260503040706 | 43 | 267 | 9.6 | 11.3 | 0.00 | 0.00 | 0.00 | 100 | 1006.0 |
| 20260503034707 | 42 | 265 | 10.4 | 13.0 | 0.00 | 0.00 | 0.00 | 100 | 1005.9 |
| 20260503032707 | 42 | 257 | 12.2 | 14.8 | 0.00 | 0.00 | 0.00 | 100 | 1005.6 |
| 20260503030707 | 42 | 255 | 10.4 | 13.9 | 0.00 | 0.00 | 0.00 | 100 | 1005.7 |
| 20260503024707 | 42 | 259 | 11.3 | 13.9 | 0.00 | 0.00 | 0.00 | 100 | 1005.7 |
| 20260503022706 | 41 | 263 | 12.2 | 14.8 | 0.00 | 0.00 | 0.00 | 100 | 1005.8 |
| 20260503020706 | 42 | 256 | 15.6 | 19.1 | 0.00 | 0.00 | 0.00 | 100 | 1005.8 |
| 20260503014706 | 42 | 249 | 15.6 | 18.2 | 0.00 | 0.00 | 0.00 | 100 | 1005.4 |
| 20260503012706 | 42 | 249 | 14.8 | 17.4 | 0.00 | 0.00 | 0.00 | 100 | 1005.5 |
| 20260503010706 | 42 | 249 | 15.6 | 18.2 | 0.00 | 0.00 | 0.00 | 100 | 1005.7 |
| 20260503004706 | 42 | 248 | 14.8 | 16.5 | 0.00 | 0.00 | 0.00 | 100 | 1005.9 |
| 20260503002706 | 42 | 249 | 14.8 | 17.4 | 0.00 | 0.00 | 0.00 | 100 | 1006.1 |
| 20260503000706 | 42 | 252 | 14.8 | 17.4 | 0.00 | 0.00 | 0.00 | 100 | 1006.3 |
| 20260502234706 | 42 | 250 | 14.8 | 16.5 | 0.00 | 0.00 | 0.00 | 100 | 1006.6 |
| 20260502232706 | 42 | 248 | 16.5 | 20.0 | 0.00 | 0.00 | 0.00 | 100 | 1006.7 |
| 20260502230706 | 43 | 248 | 15.6 | 18.2 | 0.00 | 0.00 | 0.00 | 100 | 1006.8 |
| 20260502224706 | 43 | 250 | 16.5 | 19.1 | 0.00 | 0.00 | 0.00 | 100 | 1007.1 |
| 20260502222707 | 43 | 249 | 14.8 | 18.2 | 0.00 | 0.00 | 0.00 | 100 | 1007.2 |
| 20260502220706 | 43 | 247 | 14.8 | 17.4 | 0.00 | 0.00 | 0.00 | 100 | 1007.3 |
| 20260502214706 | 43 | 248 | 14.8 | 18.2 | 0.00 | 0.00 | 0.00 | 100 | 1007.6 |